Location: *
(49.5667°N, 1.3667°W)
Time: 07:45:27
(UTC+00:00)

Cosmos 1300 Rocket - Pass Details

Date: 20 September 2019
Orbit: 603 x 625 km, 82.5° (Epoch: 22 October)

Event Time Altitude Azimuth Distance (km) Brightness Sun altitude
Rises 18:43:46 0° 193° (SSW) 2,846 7.0 -6.5°
Reaches altitude 10° 18:45:58 10° 195° (SSW) 1,946 6.2 -6.8°
Maximum altitude 18:50:16 74° 281° (W) 632 3.8 -7.5°
Drops below altitude 10° 18:54:37 10° 7° (N) 1,962 6.2 -8.2°
Sets 18:56:51 0° 9° (N) 2,872 7.0 -8.6°
